| time (UTC) | temp F | wind direction | speed MPH | gust MPH | rain 1hr in | rain 24hr in | rain mn in | humidity % | barometer mb |
| 20260904141038 | 83 | 232 | 0.0 | 4.0 | 0.00 | 0.00 | 0.00 | 89 | 1013.2 |
| 20260904140540 | 82 | 0 | 1.0 | 4.0 | 0.00 | 0.00 | 0.00 | 89 | 1013.1 |
| 20260904140109 | 82 | 0 | 0.0 | 4.0 | 0.00 | 0.00 | 0.00 | 88 | 1013.0 |
| 20260904135539 | 82 | 261 | 1.0 | 6.0 | 0.00 | 0.00 | 0.00 | 88 | 1013.1 |
| 20260904135041 | 82 | 0 | 0.0 | 6.0 | 0.00 | 0.00 | 0.00 | 89 | 1013.0 |
| 20260904134615 | 82 | 187 | 2.0 | 6.0 | 0.00 | 0.00 | 0.00 | 89 | 1013.0 |
| 20260904134038 | 82 | 0 | 0.0 | 5.0 | 0.00 | 0.00 | 0.00 | 89 | 1012.9 |
| 20260904133539 | 81 | 259 | 0.0 | 4.0 | 0.00 | 0.00 | 0.00 | 89 | 1013.0 |
| 20260904133105 | 81 | 0 | 1.0 | 4.0 | 0.00 | 0.00 | 0.00 | 90 | 1013.0 |
| 20260904132540 | 81 | 244 | 1.0 | 5.0 | 0.00 | 0.00 | 0.00 | 90 | 1013.0 |
| 20260904132041 | 81 | 0 | 2.0 | 5.0 | 0.00 | 0.00 | 0.00 | 90 | 1012.9 |
| 20260904131558 | 80 | 178 | 1.0 | 4.0 | 0.00 | 0.00 | 0.00 | 90 | 1012.8 |
| 20260904131044 | 80 | 161 | 1.0 | 6.0 | 0.00 | 0.00 | 0.00 | 91 | 1012.8 |
| 20260904130537 | 80 | 173 | 2.0 | 6.0 | 0.00 | 0.00 | 0.00 | 90 | 1012.8 |
| 20260904130105 | 80 | 182 | 4.0 | 6.0 | 0.00 | 0.00 | 0.00 | 90 | 1012.7 |
| 20260904125541 | 80 | 183 | 2.0 | 6.0 | 0.00 | 0.00 | 0.00 | 91 | 1012.7 |
| 20260904125038 | 80 | 171 | 3.0 | 6.0 | 0.00 | 0.00 | 0.00 | 91 | 1012.7 |
| 20260904124617 | 80 | 171 | 3.0 | 6.0 | 0.00 | 0.00 | 0.00 | 91 | 1012.6 |
| 20260904124038 | 80 | 131 | 3.0 | 6.0 | 0.00 | 0.00 | 0.00 | 91 | 1012.7 |
| 20260904123540 | 80 | 159 | 3.0 | 6.0 | 0.00 | 0.00 | 0.00 | 90 | 1012.7 |
| 20260904123058 | 80 | 159 | 2.0 | 8.0 | 0.00 | 0.00 | 0.00 | 90 | 1012.7 |
| 20260904122538 | 80 | 139 | 3.0 | 8.0 | 0.00 | 0.00 | 0.00 | 90 | 1012.7 |
| 20260904122041 | 80 | 174 | 1.0 | 5.0 | 0.00 | 0.00 | 0.00 | 91 | 1012.7 |
| 20260904121602 | 80 | 173 | 1.0 | 5.0 | 0.00 | 0.00 | 0.00 | 91 | 1012.7 |
| 20260904121040 | 80 | 0 | 0.0 | 5.0 | 0.00 | 0.00 | 0.00 | 91 | 1012.6 |
| 20260904120539 | 80 | 0 | 1.0 | 5.0 | 0.00 | 0.00 | 0.00 | 90 | 1012.6 |
| 20260904120104 | 80 | 133 | 2.0 | 5.0 | 0.00 | 0.00 | 0.00 | 90 | 1012.5 |
| 20260904115537 | 80 | 0 | 1.0 | 4.0 | 0.00 | 0.00 | 0.00 | 90 | 1012.4 |
| 20260904115039 | 80 | 126 | 0.0 | 4.0 | 0.00 | 0.00 | 0.00 | 90 | 1012.4 |
| 20260904114559 | 80 | 63 | 0.0 | 5.0 | 0.00 | 0.00 | 0.00 | 90 | 1012.4 |
| 20260904114041 | 80 | 90 | 1.0 | 5.0 | 0.00 | 0.00 | 0.00 | 90 | 1012.4 |
| 20260904113541 | 80 | 139 | 0.0 | 6.0 | 0.00 | 0.00 | 0.00 | 90 | 1012.3 |
| 20260904113057 | 80 | 138 | 2.0 | 6.0 | 0.00 | 0.00 | 0.00 | 90 | 1012.2 |
| 20260904112540 | 80 | 0 | 0.0 | 5.0 | 0.00 | 0.00 | 0.00 | 90 | 1012.1 |
| 20260904112040 | 80 | 157 | 1.0 | 4.0 | 0.00 | 0.00 | 0.00 | 90 | 1012.1 |
| 20260904111603 | 80 | 0 | 1.0 | 4.0 | 0.00 | 0.00 | 0.00 | 90 | 1012.0 |
| 20260904111038 | 80 | 193 | 0.0 | 6.0 | 0.00 | 0.00 | 0.00 | 90 | 1012.0 |
| 20260904110540 | 80 | 172 | 1.0 | 6.0 | 0.00 | 0.00 | 0.00 | 90 | 1011.9 |
| 20260904105541 | 80 | 179 | 2.0 | 7.0 | 0.00 | 0.00 | 0.00 | 90 | 1011.8 |
| 20260904105037 | 80 | 105 | 2.0 | 7.0 | 0.00 | 0.00 | 0.00 | 90 | 1011.7 |
| 20260904104610 | 80 | 123 | 3.0 | 9.0 | 0.00 | 0.00 | 0.00 | 90 | 1011.8 |
| 20260904104043 | 80 | 105 | 3.0 | 9.0 | 0.00 | 0.00 | 0.00 | 90 | 1011.8 |
| 20260904103540 | 80 | 119 | 5.0 | 9.0 | 0.00 | 0.00 | 0.00 | 90 | 1011.7 |
| 20260904103107 | 80 | 126 | 5.0 | 9.0 | 0.00 | 0.00 | 0.00 | 90 | 1011.8 |
| 20260904102544 | 80 | 114 | 4.0 | 8.0 | 0.00 | 0.00 | 0.00 | 90 | 1011.8 |
| 20260904102040 | 80 | 86 | 3.0 | 7.0 | 0.00 | 0.00 | 0.00 | 90 | 1011.9 |
| 20260904101604 | 80 | 111 | 4.0 | 7.0 | 0.00 | 0.00 | 0.00 | 90 | 1011.9 |
| 20260904101040 | 80 | 128 | 3.0 | 6.0 | 0.00 | 0.00 | 0.00 | 89 | 1011.9 |
| 20260904100540 | 81 | 117 | 3.0 | 8.0 | 0.00 | 0.00 | 0.00 | 89 | 1011.9 |
| 20260904100110 | 81 | 155 | 3.0 | 9.0 | 0.00 | 0.00 | 0.00 | 89 | 1011.9 |
| 20260904095538 | 81 | 141 | 3.0 | 10.0 | 0.00 | 0.00 | 0.00 | 89 | 1012.0 |
| 20260904095039 | 81 | 116 | 3.0 | 10.0 | 0.00 | 0.00 | 0.00 | 89 | 1012.0 |
| 20260904094608 | 81 | 171 | 3.0 | 10.0 | 0.00 | 0.00 | 0.00 | 89 | 1012.0 |
| 20260904094040 | 81 | 138 | 4.0 | 10.0 | 0.00 | 0.00 | 0.00 | 89 | 1012.1 |
| 20260904093541 | 81 | 153 | 3.0 | 9.0 | 0.00 | 0.00 | 0.00 | 89 | 1012.2 |
| 20260904093058 | 81 | 126 | 4.0 | 9.0 | 0.00 | 0.00 | 0.00 | 89 | 1012.3 |
| 20260904092537 | 81 | 202 | 4.0 | 9.0 | 0.00 | 0.00 | 0.00 | 89 | 1012.2 |
| 20260904092044 | 81 | 138 | 4.0 | 9.0 | 0.00 | 0.00 | 0.00 | 89 | 1012.3 |
| 20260904091604 | 81 | 174 | 3.0 | 8.0 | 0.00 | 0.00 | 0.00 | 89 | 1012.4 |
| 20260904091040 | 81 | 189 | 1.0 | 8.0 | 0.00 | 0.00 | 0.00 | 89 | 1012.4 |
| 20260904090540 | 81 | 193 | 4.0 | 8.0 | 0.00 | 0.00 | 0.00 | 89 | 1012.6 |
| 20260904090100 | 81 | 0 | 2.0 | 5.0 | 0.00 | 0.00 | 0.00 | 89 | 1012.5 |
| 20260904085540 | 81 | 0 | 0.0 | 7.0 | 0.00 | 0.00 | 0.00 | 90 | 1012.6 |
| 20260904085041 | 81 | 109 | 2.0 | 7.0 | 0.00 | 0.00 | 0.00 | 90 | 1012.7 |
| 20260904084559 | 81 | 159 | 2.0 | 7.0 | 0.00 | 0.00 | 0.00 | 90 | 1012.7 |
| 20260904084040 | 81 | 0 | 2.0 | 7.0 | 0.00 | 0.00 | 0.00 | 90 | 1012.7 |
| 20260904083540 | 81 | 107 | 3.0 | 7.0 | 0.00 | 0.00 | 0.00 | 90 | 1012.7 |
| 20260904083107 | 81 | 118 | 3.0 | 7.0 | 0.00 | 0.00 | 0.00 | 90 | 1012.7 |
| 20260904082540 | 81 | 115 | 3.0 | 8.0 | 0.00 | 0.00 | 0.00 | 90 | 1012.8 |
| 20260904082042 | 81 | 126 | 2.0 | 8.0 | 0.00 | 0.00 | 0.00 | 90 | 1012.7 |
| 20260904081602 | 81 | 136 | 2.0 | 8.0 | 0.00 | 0.00 | 0.00 | 90 | 1012.8 |
| 20260904081040 | 81 | 132 | 3.0 | 10.0 | 0.00 | 0.00 | 0.00 | 90 | 1012.8 |
| 20260904080540 | 81 | 132 | 4.0 | 10.0 | 0.00 | 0.00 | 0.00 | 90 | 1012.8 |
| 20260904075542 | 81 | 0 | 2.0 | 10.0 | 0.00 | 0.00 | 0.00 | 91 | 1012.8 |
| 20260904075041 | 81 | 81 | 5.0 | 13.0 | 0.00 | 0.00 | 0.00 | 91 | 1012.9 |
| 20260904074611 | 81 | 85 | 7.0 | 13.0 | 0.00 | 0.00 | 0.00 | 91 | 1013.0 |
| 20260904074040 | 82 | 100 | 5.0 | 13.0 | 0.00 | 0.00 | 0.00 | 91 | 1013.0 |
| 20260904073541 | 82 | 84 | 5.0 | 15.0 | 0.00 | 0.00 | 0.00 | 91 | 1013.0 |
| 20260904073100 | 82 | 88 | 8.0 | 15.0 | 0.00 | 0.00 | 0.00 | 91 | 1013.1 |
| 20260904072544 | 82 | 130 | 8.0 | 14.0 | 0.00 | 0.00 | 0.00 | 91 | 1013.1 |
| 20260904072040 | 82 | 109 | 6.0 | 13.0 | 0.00 | 0.00 | 0.00 | 91 | 1013.1 |
| 20260904071557 | 82 | 144 | 5.0 | 10.0 | 0.00 | 0.00 | 0.00 | 91 | 1013.2 |
| 20260904071043 | 82 | 76 | 6.0 | 10.0 | 0.00 | 0.00 | 0.00 | 91 | 1013.2 |
| 20260904070538 | 82 | 60 | 5.0 | 11.0 | 0.00 | 0.00 | 0.00 | 91 | 1013.1 |
| 20260904065541 | 82 | 109 | 5.0 | 11.0 | 0.00 | 0.00 | 0.00 | 91 | 1013.3 |
| 20260904065042 | 83 | 80 | 6.0 | 11.0 | 0.00 | 0.00 | 0.00 | 91 | 1013.3 |
| 20260904064558 | 83 | 121 | 5.0 | 12.0 | 0.00 | 0.00 | 0.00 | 91 | 1013.3 |
| 20260904064041 | 83 | 102 | 5.0 | 12.0 | 0.00 | 0.00 | 0.00 | 91 | 1013.5 |
| 20260904063541 | 83 | 88 | 5.0 | 13.0 | 0.00 | 0.00 | 0.00 | 91 | 1013.8 |
| 20260904063104 | 83 | 97 | 6.0 | 13.0 | 0.00 | 0.00 | 0.00 | 91 | 1013.9 |
| 20260904062542 | 84 | 109 | 5.0 | 11.0 | 0.00 | 0.00 | 0.00 | 91 | 1013.9 |
| 20260904062040 | 84 | 119 | 6.0 | 11.0 | 0.00 | 0.00 | 0.00 | 91 | 1013.9 |
| 20260904061554 | 84 | 92 | 4.0 | 9.0 | 0.00 | 0.00 | 0.00 | 91 | 1013.9 |
| 20260904061041 | 84 | 26 | 4.0 | 10.0 | 0.00 | 0.00 | 0.00 | 91 | 1013.9 |
| 20260904060544 | 84 | 109 | 6.0 | 10.0 | 0.00 | 0.00 | 0.00 | 91 | 1013.9 |
| 20260904060106 | 84 | 0 | 3.0 | 12.0 | 0.00 | 0.00 | 0.00 | 91 | 1013.9 |
| 20260904055536 | 84 | 83 | 5.0 | 12.0 | 0.00 | 0.00 | 0.00 | 91 | 1013.9 |
| 20260904055038 | 84 | 130 | 5.0 | 10.0 | 0.00 | 0.00 | 0.00 | 91 | 1013.9 |
| 20260904054559 | 84 | 88 | 3.0 | 9.0 | 0.00 | 0.00 | 0.00 | 91 | 1013.9 |
| 20260904054037 | 85 | 113 | 3.0 | 9.0 | 0.00 | 0.00 | 0.00 | 91 | 1014.0 |
| 20260904053540 | 85 | 101 | 3.0 | 8.0 | 0.00 | 0.00 | 0.00 | 91 | 1014.1 |
| 20260904053100 | 85 | 55 | 3.0 | 10.0 | 0.00 | 0.00 | 0.00 | 91 | 1014.1 |
| 20260904052540 | 85 | 67 | 4.0 | 10.0 | 0.00 | 0.00 | 0.00 | 91 | 1014.1 |
| 20260904052041 | 85 | 74 | 3.0 | 10.0 | 0.00 | 0.00 | 0.00 | 91 | 1014.2 |
| 20260904051602 | 85 | 74 | 5.0 | 10.0 | 0.00 | 0.00 | 0.00 | 91 | 1014.3 |
| 20260904051040 | 85 | 52 | 4.0 | 9.0 | 0.00 | 0.00 | 0.00 | 91 | 1014.4 |
| 20260904050540 | 85 | 40 | 3.0 | 7.0 | 0.00 | 0.00 | 0.00 | 91 | 1014.4 |
| 20260904050104 | 85 | 38 | 3.0 | 8.0 | 0.00 | 0.00 | 0.00 | 90 | 1014.3 |
| 20260904045541 | 85 | 81 | 3.0 | 9.0 | 0.00 | 0.00 | 0.00 | 89 | 1014.3 |
| 20260904045041 | 85 | 79 | 4.0 | 9.0 | 0.00 | 0.00 | 0.00 | 89 | 1014.1 |
| 20260904044555 | 85 | 51 | 3.0 | 8.0 | 0.00 | 0.00 | 0.00 | 89 | 1014.1 |
| 20260904044040 | 86 | 99 | 3.0 | 9.0 | 0.00 | 0.00 | 0.00 | 89 | 1014.0 |
| 20260904043540 | 86 | 61 | 3.0 | 10.0 | 0.00 | 0.00 | 0.00 | 89 | 1014.0 |
| 20260904043104 | 86 | 77 | 4.0 | 10.0 | 0.00 | 0.00 | 0.00 | 89 | 1013.8 |
| 20260904042540 | 86 | 82 | 3.0 | 8.0 | 0.00 | 0.00 | 0.00 | 88 | 1013.7 |
| 20260904042038 | 86 | 109 | 3.0 | 8.0 | 0.00 | 0.00 | 0.00 | 88 | 1013.7 |
| 20260904041601 | 86 | 66 | 4.0 | 8.0 | 0.00 | 0.00 | 0.00 | 88 | 1013.6 |
| 20260904041037 | 86 | 83 | 2.0 | 9.0 | 0.00 | 0.00 | 0.00 | 88 | 1013.4 |
| 20260904040539 | 86 | 113 | 1.0 | 9.0 | 0.00 | 0.00 | 0.00 | 88 | 1013.5 |
| 20260904040058 | 87 | 86 | 4.0 | 9.0 | 0.00 | 0.00 | 0.00 | 87 | 1013.5 |
| 20260904035540 | 87 | 84 | 4.0 | 8.0 | 0.00 | 0.00 | 0.00 | 87 | 1013.5 |
| 20260904035041 | 87 | 65 | 3.0 | 10.0 | 0.00 | 0.00 | 0.00 | 87 | 1013.4 |
| 20260904034601 | 87 | 70 | 3.0 | 10.0 | 0.00 | 0.00 | 0.00 | 87 | 1013.3 |
| 20260904034043 | 87 | 59 | 3.0 | 8.0 | 0.00 | 0.00 | 0.00 | 87 | 1013.2 |
| 20260904033541 | 87 | 11 | 3.0 | 10.0 | 0.00 | 0.00 | 0.00 | 87 | 1013.2 |
| 20260904033102 | 87 | 31 | 4.0 | 10.0 | 0.00 | 0.00 | 0.00 | 86 | 1013.1 |
| 20260904032542 | 87 | 56 | 3.0 | 10.0 | 0.00 | 0.00 | 0.00 | 86 | 1013.1 |
| 20260904032040 | 87 | 41 | 4.0 | 10.0 | 0.00 | 0.00 | 0.00 | 86 | 1012.9 |
| 20260904031559 | 87 | 107 | 4.0 | 10.0 | 0.00 | 0.00 | 0.00 | 86 | 1012.8 |
| 20260904031040 | 87 | 109 | 2.0 | 7.0 | 0.00 | 0.00 | 0.00 | 86 | 1012.8 |
| 20260904030540 | 87 | 54 | 2.0 | 7.0 | 0.00 | 0.00 | 0.00 | 86 | 1012.9 |
| 20260904030058 | 87 | 50 | 3.0 | 7.0 | 0.00 | 0.00 | 0.00 | 86 | 1012.8 |
| 20260904025538 | 87 | 107 | 2.0 | 6.0 | 0.00 | 0.00 | 0.00 | 86 | 1012.9 |
| 20260904025040 | 87 | 360 | 1.0 | 6.0 | 0.00 | 0.00 | 0.00 | 86 | 1012.8 |
| 20260904024606 | 87 | 91 | 1.0 | 6.0 | 0.00 | 0.00 | 0.00 | 86 | 1012.7 |
| 20260904024043 | 87 | 92 | 0.0 | 5.0 | 0.00 | 0.00 | 0.00 | 86 | 1012.7 |
| 20260904023541 | 87 | 96 | 0.0 | 5.0 | 0.00 | 0.00 | 0.00 | 86 | 1012.8 |
| 20260904023102 | 87 | 44 | 1.0 | 4.0 | 0.00 | 0.00 | 0.00 | 86 | 1013.0 |
| 20260904022540 | 87 | 325 | 1.0 | 5.0 | 0.00 | 0.00 | 0.00 | 86 | 1013.1 |
| 20260904022040 | 87 | 26 | 0.0 | 5.0 | 0.00 | 0.00 | 0.00 | 86 | 1013.0 |
| 20260904021558 | 87 | 29 | 1.0 | 4.0 | 0.00 | 0.00 | 0.00 | 86 | 1012.9 |
| 20260904021041 | 87 | 55 | 0.0 | 3.0 | 0.00 | 0.00 | 0.00 | 86 | 1012.9 |
| 20260904020541 | 87 | 92 | 1.0 | 4.0 | 0.00 | 0.00 | 0.00 | 86 | 1012.9 |
| 20260904020101 | 87 | 0 | 1.0 | 4.0 | 0.00 | 0.00 | 0.00 | 86 | 1012.8 |
| 20260904015540 | 87 | 0 | 0.0 | 3.0 | 0.00 | 0.00 | 0.00 | 86 | 1012.7 |
| 20260904015037 | 87 | 111 | 0.0 | 4.0 | 0.00 | 0.00 | 0.00 | 86 | 1012.7 |
| 20260904014608 | 88 | 0 | 1.0 | 4.0 | 0.00 | 0.00 | 0.00 | 86 | 1012.8 |
| 20260904014042 | 88 | 33 | 0.0 | 6.0 | 0.00 | 0.00 | 0.00 | 86 | 1012.5 |
| 20260904013543 | 88 | 61 | 0.0 | 6.0 | 0.00 | 0.00 | 0.00 | 86 | 1012.4 |
| 20260904013057 | 88 | 65 | 1.0 | 6.0 | 0.00 | 0.00 | 0.00 | 85 | 1012.3 |
| 20260904012540 | 88 | 316 | 0.0 | 6.0 | 0.00 | 0.00 | 0.00 | 85 | 1012.1 |
| 20260904012041 | 88 | 25 | 1.0 | 8.0 | 0.00 | 0.00 | 0.00 | 85 | 1011.8 |
| 20260904011604 | 88 | 59 | 2.0 | 8.0 | 0.00 | 0.00 | 0.00 | 85 | 1011.8 |
| 20260904011040 | 88 | 0 | 1.0 | 9.0 | 0.00 | 0.00 | 0.00 | 85 | 1011.8 |
| 20260904010540 | 88 | 22 | 2.0 | 9.0 | 0.00 | 0.00 | 0.00 | 85 | 1011.7 |
| 20260904010116 | 88 | 316 | 3.0 | 12.0 | 0.00 | 0.00 | 0.00 | 85 | 1011.6 |
| 20260904005541 | 88 | 98 | 3.0 | 12.0 | 0.00 | 0.00 | 0.00 | 85 | 1011.5 |
| 20260904005038 | 88 | 36 | 3.0 | 11.0 | 0.00 | 0.00 | 0.00 | 84 | 1011.5 |
| 20260904004559 | 89 | 0 | 2.0 | 11.0 | 0.00 | 0.00 | 0.00 | 84 | 1011.8 |
| 20260904004040 | 89 | 0 | 1.0 | 12.0 | 0.00 | 0.00 | 0.00 | 84 | 1011.4 |
| 20260904003540 | 89 | 277 | 2.0 | 12.0 | 0.00 | 0.00 | 0.00 | 84 | 1011.4 |
| 20260904003108 | 89 | 15 | 1.0 | 8.0 | 0.00 | 0.00 | 0.00 | 84 | 1011.4 |
| 20260904002541 | 89 | 18 | 1.0 | 14.0 | 0.00 | 0.00 | 0.00 | 84 | 1011.3 |
| 20260904002041 | 89 | 101 | 3.0 | 14.0 | 0.00 | 0.00 | 0.00 | 83 | 1011.3 |
| 20260904001601 | 89 | 345 | 1.0 | 12.0 | 0.00 | 0.00 | 0.00 | 83 | 1011.4 |
| 20260904001040 | 89 | 269 | 2.0 | 9.0 | 0.00 | 0.00 | 0.00 | 83 | 1011.5 |
| 20260904000540 | 90 | 312 | 1.0 | 12.0 | 0.00 | 0.00 | 0.00 | 83 | 1011.6 |
| 20260904000104 | 90 | 342 | 3.0 | 12.0 | 0.00 | 0.00 | 0.00 | 83 | 1011.5 |
| 20260903235542 | 90 | 15 | 5.0 | 12.0 | 0.00 | 0.00 | 0.00 | 83 | 1011.4 |
| 20260903235040 | 91 | 304 | 3.0 | 10.0 | 0.00 | 0.00 | 0.00 | 82 | 1011.3 |
| 20260903234604 | 91 | 319 | 2.0 | 10.0 | 0.00 | 0.00 | 0.00 | 82 | 1011.2 |
| 20260903234041 | 91 | 0 | 2.0 | 9.0 | 0.00 | 0.00 | 0.00 | 82 | 1011.1 |
| 20260903233546 | 91 | 74 | 1.0 | 10.0 | 0.00 | 0.00 | 0.00 | 82 | 1011.0 |
| 20260903233105 | 91 | 360 | 5.0 | 10.0 | 0.00 | 0.00 | 0.00 | 82 | 1010.9 |
| 20260903232540 | 91 | 227 | 4.0 | 13.0 | 0.00 | 0.00 | 0.00 | 82 | 1010.7 |
| 20260903232040 | 91 | 290 | 2.0 | 13.0 | 0.00 | 0.00 | 0.00 | 82 | 1010.6 |
| 20260903231608 | 92 | 322 | 6.0 | 13.0 | 0.00 | 0.00 | 0.00 | 82 | 1010.6 |
| 20260903231039 | 92 | 44 | 2.0 | 11.0 | 0.00 | 0.00 | 0.00 | 82 | 1010.6 |
| 20260903230542 | 92 | 28 | 4.0 | 14.0 | 0.00 | 0.00 | 0.00 | 82 | 1010.7 |
| 20260903230100 | 93 | 48 | 3.0 | 15.0 | 0.00 | 0.00 | 0.00 | 81 | 1010.6 |
| 20260903225544 | 93 | 314 | 4.0 | 15.0 | 0.00 | 0.00 | 0.00 | 81 | 1010.7 |
| 20260903225037 | 94 | 5 | 3.0 | 11.0 | 0.00 | 0.00 | 0.00 | 80 | 1010.8 |
| 20260903224604 | 94 | 58 | 2.0 | 11.0 | 0.00 | 0.00 | 0.00 | 80 | 1010.8 |
| 20260903224042 | 94 | 340 | 2.0 | 10.0 | 0.00 | 0.00 | 0.00 | 79 | 1010.7 |
| 20260903223540 | 95 | 50 | 2.0 | 10.0 | 0.00 | 0.00 | 0.00 | 79 | 1010.7 |
| 20260903223103 | 95 | 13 | 4.0 | 10.0 | 0.00 | 0.00 | 0.00 | 78 | 1010.7 |
| 20260903222540 | 96 | 33 | 2.0 | 9.0 | 0.00 | 0.00 | 0.00 | 77 | 1010.7 |
| 20260903222040 | 96 | 35 | 3.0 | 11.0 | 0.00 | 0.00 | 0.00 | 77 | 1010.7 |
| 20260903221604 | 96 | 306 | 1.0 | 11.0 | 0.00 | 0.00 | 0.00 | 76 | 1010.6 |
| 20260903221039 | 96 | 53 | 5.0 | 11.0 | 0.00 | 0.00 | 0.00 | 77 | 1010.5 |
| 20260903220537 | 96 | 306 | 4.0 | 11.0 | 0.00 | 0.00 | 0.00 | 76 | 1010.4 |
| 20260903220057 | 97 | 49 | 4.0 | 11.0 | 0.00 | 0.00 | 0.00 | 75 | 1010.4 |
| 20260903215541 | 97 | 344 | 2.0 | 11.0 | 0.00 | 0.00 | 0.00 | 75 | 1010.4 |
| 20260903215037 | 97 | 352 | 3.0 | 12.0 | 0.00 | 0.00 | 0.00 | 75 | 1010.3 |
| 20260903214603 | 97 | 30 | 2.0 | 13.0 | 0.00 | 0.00 | 0.00 | 75 | 1010.3 |
| 20260903214040 | 97 | 306 | 5.0 | 14.0 | 0.00 | 0.00 | 0.00 | 74 | 1010.4 |
| 20260903213540 | 96 | 335 | 3.0 | 14.0 | 0.00 | 0.00 | 0.00 | 75 | 1010.3 |
| 20260903213104 | 97 | 15 | 7.0 | 14.0 | 0.00 | 0.00 | 0.00 | 73 | 1010.3 |
| 20260903212540 | 98 | 72 | 8.0 | 15.0 | 0.00 | 0.00 | 0.00 | 71 | 1010.4 |
| 20260903212040 | 98 | 39 | 7.0 | 15.0 | 0.00 | 0.00 | 0.00 | 68 | 1010.6 |
| 20260903211559 | 99 | 72 | 5.0 | 13.0 | 0.00 | 0.00 | 0.00 | 67 | 1010.6 |
| 20260903211039 | 99 | 70 | 6.0 | 12.0 | 0.00 | 0.00 | 0.00 | 64 | 1010.6 |
| 20260903210541 | 99 | 33 | 4.0 | 12.0 | 0.00 | 0.00 | 0.00 | 66 | 1010.7 |
| 20260903210114 | 98 | 73 | 5.0 | 13.0 | 0.00 | 0.00 | 0.00 | 66 | 1010.8 |
| 20260903205540 | 98 | 84 | 6.0 | 13.0 | 0.00 | 0.00 | 0.00 | 66 | 1010.9 |
| 20260903205040 | 98 | 51 | 8.0 | 14.0 | 0.00 | 0.00 | 0.00 | 64 | 1011.1 |
| 20260903204617 | 98 | 124 | 8.0 | 14.0 | 0.00 | 0.00 | 0.00 | 66 | 1011.1 |
| 20260903204040 | 98 | 112 | 6.0 | 13.0 | 0.00 | 0.00 | 0.00 | 66 | 1011.1 |
| 20260903203540 | 98 | 94 | 5.0 | 12.0 | 0.00 | 0.00 | 0.00 | 67 | 1011.2 |
| 20260903203100 | 98 | 136 | 6.0 | 12.0 | 0.00 | 0.00 | 0.00 | 67 | 1011.3 |
| 20260903202540 | 98 | 78 | 7.0 | 12.0 | 0.00 | 0.00 | 0.00 | 66 | 1011.4 |
| 20260903202038 | 98 | 53 | 4.0 | 13.0 | 0.00 | 0.00 | 0.00 | 67 | 1011.4 |
| 20260903201600 | 97 | 39 | 4.0 | 13.0 | 0.00 | 0.00 | 0.00 | 67 | 1011.5 |
| 20260903201039 | 98 | 104 | 8.0 | 13.0 | 0.00 | 0.00 | 0.00 | 68 | 1011.6 |
| 20260903200539 | 98 | 96 | 2.0 | 12.0 | 0.00 | 0.00 | 0.00 | 68 | 1011.8 |
| 20260903195536 | 98 | 82 | 3.0 | 10.0 | 0.00 | 0.00 | 0.00 | 67 | 1011.9 |
| 20260903195040 | 97 | 74 | 5.0 | 10.0 | 0.00 | 0.00 | 0.00 | 67 | 1012.1 |
| 20260903194556 | 97 | 59 | 5.0 | 10.0 | 0.00 | 0.00 | 0.00 | 67 | 1012.1 |
| 20260903194041 | 97 | 76 | 4.0 | 11.0 | 0.00 | 0.00 | 0.00 | 67 | 1012.1 |
| 20260903193542 | 97 | 197 | 2.0 | 11.0 | 0.00 | 0.00 | 0.00 | 68 | 1012.2 |
| 20260903193104 | 97 | 114 | 3.0 | 10.0 | 0.00 | 0.00 | 0.00 | 67 | 1012.4 |
| 20260903192537 | 97 | 122 | 5.0 | 10.0 | 0.00 | 0.00 | 0.00 | 67 | 1012.4 |
| 20260903192042 | 97 | 116 | 5.0 | 11.0 | 0.00 | 0.00 | 0.00 | 67 | 1012.4 |
| 20260903191559 | 96 | 74 | 3.0 | 11.0 | 0.00 | 0.00 | 0.00 | 69 | 1012.5 |
| 20260903191040 | 96 | 112 | 3.0 | 11.0 | 0.00 | 0.00 | 0.00 | 69 | 1012.5 |
| 20260903190539 | 96 | 112 | 6.0 | 11.0 | 0.00 | 0.00 | 0.00 | 69 | 1012.7 |
| 20260903190057 | 96 | 123 | 4.0 | 11.0 | 0.00 | 0.00 | 0.00 | 70 | 1012.9 |
| 20260903185540 | 95 | 105 | 4.0 | 10.0 | 0.00 | 0.00 | 0.00 | 70 | 1013.0 |
| 20260903185040 | 96 | 147 | 3.0 | 9.0 | 0.00 | 0.00 | 0.00 | 70 | 1013.1 |
| 20260903184608 | 97 | 110 | 2.0 | 10.0 | 0.00 | 0.00 | 0.00 | 69 | 1013.1 |
| 20260903184040 | 96 | 162 | 4.0 | 10.0 | 0.00 | 0.00 | 0.00 | 70 | 1013.3 |
| 20260903183539 | 96 | 119 | 3.0 | 10.0 | 0.00 | 0.00 | 0.00 | 70 | 1013.1 |
| 20260903183106 | 95 | 118 | 2.0 | 11.0 | 0.00 | 0.00 | 0.00 | 70 | 1013.4 |
| 20260903182537 | 96 | 125 | 6.0 | 11.0 | 0.00 | 0.00 | 0.00 | 70 | 1013.5 |
| 20260903182039 | 96 | 119 | 4.0 | 10.0 | 0.00 | 0.00 | 0.00 | 70 | 1013.6 |
| 20260903181604 | 95 | 50 | 3.0 | 10.0 | 0.00 | 0.00 | 0.00 | 71 | 1013.6 |
| 20260903181040 | 95 | 78 | 2.0 | 10.0 | 0.00 | 0.00 | 0.00 | 71 | 1013.7 |
| 20260903180540 | 94 | 0 | 4.0 | 10.0 | 0.00 | 0.00 | 0.00 | 71 | 1013.8 |
| 20260903175540 | 95 | 72 | 4.0 | 10.0 | 0.00 | 0.00 | 0.00 | 72 | 1013.8 |
| 20260903175041 | 94 | 122 | 1.0 | 7.0 | 0.00 | 0.00 | 0.00 | 73 | 1013.9 |
| 20260903174604 | 95 | 11 | 2.0 | 8.0 | 0.00 | 0.00 | 0.00 | 73 | 1013.9 |
| 20260903174043 | 94 | 68 | 4.0 | 8.0 | 0.00 | 0.00 | 0.00 | 73 | 1014.0 |
| 20260903173540 | 93 | 157 | 3.0 | 9.0 | 0.00 | 0.00 | 0.00 | 74 | 1014.1 |
| 20260903173105 | 94 | 111 | 2.0 | 9.0 | 0.00 | 0.00 | 0.00 | 74 | 1014.1 |
| 20260903172540 | 94 | 127 | 4.0 | 10.0 | 0.00 | 0.00 | 0.00 | 74 | 1014.2 |
| 20260903172044 | 93 | 62 | 1.0 | 10.0 | 0.00 | 0.00 | 0.00 | 76 | 1014.2 |
| 20260903171602 | 93 | 127 | 4.0 | 10.0 | 0.00 | 0.00 | 0.00 | 75 | 1014.2 |
| 20260903171044 | 94 | 88 | 4.0 | 8.0 | 0.00 | 0.00 | 0.00 | 75 | 1014.1 |
| 20260903170541 | 93 | 107 | 3.0 | 9.0 | 0.00 | 0.00 | 0.00 | 75 | 1014.3 |
| 20260903170100 | 93 | 101 | 3.0 | 9.0 | 0.00 | 0.00 | 0.00 | 75 | 1014.3 |
| 20260903165541 | 92 | 105 | 0.0 | 6.0 | 0.00 | 0.00 | 0.00 | 77 | 1014.3 |
| 20260903165039 | 93 | 36 | 1.0 | 7.0 | 0.00 | 0.00 | 0.00 | 76 | 1014.3 |
| 20260903164606 | 92 | 85 | 1.0 | 8.0 | 0.00 | 0.00 | 0.00 | 75 | 1014.4 |
| 20260903164041 | 92 | 98 | 1.0 | 8.0 | 0.00 | 0.00 | 0.00 | 74 | 1014.5 |
| 20260903163542 | 91 | 184 | 4.0 | 8.0 | 0.00 | 0.00 | 0.00 | 74 | 1014.5 |
| 20260903163055 | 91 | 98 | 3.0 | 7.0 | 0.00 | 0.00 | 0.00 | 75 | 1014.5 |
| 20260903162541 | 91 | 140 | 1.0 | 5.0 | 0.00 | 0.00 | 0.00 | 76 | 1014.6 |
| 20260903162040 | 90 | 182 | 0.0 | 7.0 | 0.00 | 0.00 | 0.00 | 76 | 1014.6 |
| 20260903161604 | 91 | 175 | 3.0 | 7.0 | 0.00 | 0.00 | 0.00 | 76 | 1014.6 |
| 20260903161042 | 90 | 78 | 1.0 | 7.0 | 0.00 | 0.00 | 0.00 | 77 | 1014.5 |
| 20260903160541 | 89 | 151 | 1.0 | 7.0 | 0.00 | 0.00 | 0.00 | 77 | 1014.5 |
| 20260903160108 | 90 | 93 | 1.0 | 7.0 | 0.00 | 0.00 | 0.00 | 77 | 1014.5 |
| 20260903155542 | 89 | 112 | 2.0 | 7.0 | 0.00 | 0.00 | 0.00 | 77 | 1014.5 |
| 20260903155041 | 88 | 115 | 2.0 | 7.0 | 0.00 | 0.00 | 0.00 | 79 | 1014.7 |
| 20260903154605 | 88 | 144 | 1.0 | 6.0 | 0.00 | 0.00 | 0.00 | 79 | 1014.7 |
| 20260903154041 | 89 | 121 | 2.0 | 6.0 | 0.00 | 0.00 | 0.00 | 78 | 1014.7 |
| 20260903153541 | 89 | 137 | 2.0 | 6.0 | 0.00 | 0.00 | 0.00 | 79 | 1014.6 |
| 20260903153111 | 89 | 348 | 2.0 | 6.0 | 0.00 | 0.00 | 0.00 | 79 | 1014.6 |
| 20260903152542 | 88 | 0 | 1.0 | 4.0 | 0.00 | 0.00 | 0.00 | 79 | 1014.6 |
| 20260903152041 | 87 | 221 | 0.0 | 3.0 | 0.00 | 0.00 | 0.00 | 80 | 1014.6 |
| 20260903151604 | 86 | 302 | 0.0 | 7.0 | 0.00 | 0.00 | 0.00 | 81 | 1014.5 |
| 20260903151041 | 87 | 0 | 1.0 | 7.0 | 0.00 | 0.00 | 0.00 | 80 | 1014.6 |
| 20260903150541 | 87 | 91 | 0.0 | 5.0 | 0.00 | 0.00 | 0.00 | 81 | 1014.6 |
| 20260903150113 | 86 | 64 | 2.0 | 6.0 | 0.00 | 0.00 | 0.00 | 81 | 1014.5 |
| 20260903145538 | 86 | 0 | 0.0 | 6.0 | 0.00 | 0.00 | 0.00 | 81 | 1014.6 |
| 20260903145040 | 86 | 108 | 1.0 | 4.0 | 0.00 | 0.00 | 0.00 | 80 | 1014.6 |
| 20260903144606 | 86 | 0 | 1.0 | 4.0 | 0.00 | 0.00 | 0.00 | 81 | 1014.5 |
| 20260903144038 | 85 | 44 | 0.0 | 4.0 | 0.00 | 0.00 | 0.00 | 81 | 1014.5 |
| 20260903143542 | 85 | 0 | 1.0 | 4.0 | 0.00 | 0.00 | 0.00 | 81 | 1014.5 |
| 20260903143110 | 85 | 184 | 0.0 | 4.0 | 0.00 | 0.00 | 0.00 | 81 | 1014.5 |
| 20260903142539 | 85 | 109 | 0.0 | 3.0 | 0.00 | 0.00 | 0.00 | 81 | 1014.5 |
| 20260903142039 | 84 | 159 | 1.0 | 3.0 | 0.00 | 0.00 | 0.00 | 82 | 1014.5 |
| 20260903141557 | 85 | 105 | 0.0 | 6.0 | 0.00 | 0.00 | 0.00 | 82 | 1014.6 |